VK2BLR Weather Reports


time (UTC)temp
C
wind
direction
speed
KPH
gust
KPH
rain 1hr
cm
rain 24hr
cm
rain mn
cm
humidity
%
barometer
mb
20260504140833 10 225 0.0 0.0 0.00 2.29 0.30 90 1016.7
20260504080833 13 225 1.6 3.2 0.00 2.46 0.28 84 1015.1
20260504045333 15 315 1.6 3.2 0.10 2.39 0.20 88 1013.7
20260504043833 15 280 1.6 4.8 0.10 2.36 0.18 88 1013.7
20260504042333 15 315 3.2 4.8 0.10 2.36 0.18 88 1013.8
20260504040834 15 270 0.0 1.6 0.10 2.36 0.18 88 1013.9
20260504035333 15 315 1.6 4.8 0.05 2.31 0.13 87 1013.9
20260504033832 15 300 3.2 8.0 0.03 2.29 0.10 86 1013.9
20260504032334 15 270 0.0 3.2 0.05 2.29 0.10 85 1014.2
20260504030833 16 289 3.2 4.8 0.10 2.29 0.10 85 1014.0
20260504025332 16 270 3.2 4.8 0.05 2.26 0.05 85 1014.2
20260504023832 16 289 3.2 4.8 0.05 2.26 0.05 83 1014.6
20260504022333 16 270 0.0 1.6 0.03 2.21 0.03 82 1014.7
20260504020833 17 305 4.8 9.7 0.00 2.18 0.00 76 1014.8
20260504015332 18 55 4.8 8.0 0.00 2.18 0.00 75 1015.0
20260504013832 18 90 8.0 12.9 0.00 2.18 0.00 73 1015.1
20260504012333 18 106 4.8 12.9 0.00 2.18 0.00 73 1015.1
20260504010833 18 88 3.2 14.5 0.00 2.18 0.00 72 1015.3
20260504005332 19 73 9.7 14.5 0.00 2.18 0.00 72 1015.2
20260504003833 19 76 8.0 16.1 0.00 2.18 0.00 72 1015.4
20260504002332 20 90 11.3 16.1 0.00 2.18 0.00 71 1015.2
20260504000834 20 45 11.3 16.1 0.00 2.18 0.00 72 1015.1
20260503235334 19 83 12.9 24.1 0.00 2.18 0.00 72 1015.1
20260503233833 18 133 14.5 25.7 0.00 2.18 0.00 76 1015.1
20260503232333 18 112 12.9 19.3 0.00 2.18 0.00 78 1015.2
20260503230832 18 57 9.7 14.5 0.00 2.18 0.00 82 1015.1
20260503225333 17 312 4.8 12.9 0.10 2.18 2.18 90 1015.3
20260503223833 16 78 11.3 12.9 0.10 2.18 2.18 90 1015.1
20260503222332 16 147 14.5 20.9 0.15 2.18 2.18 91 1014.6
20260503220833 16 149 8.0 20.9 0.28 2.13 2.13 93 1014.8
20260503215333 16 135 9.7 14.5 0.38 2.11 2.11 94 1015.0
20260503213833 16 155 9.7 12.9 0.51 2.11 2.11 95 1014.8
20260503212332 16 118 11.3 12.9 0.53 2.03 2.03 95 1014.8
20260503210833 16 100 9.7 11.3 0.46 1.85 1.85 94 1015.1
20260503205333 16 76 3.2 4.8 0.38 1.70 1.70 94 1014.9
20260503203833 16 74 8.0 9.7 0.33 1.60 1.60 94 1014.7
20260503202332 16 100 3.2 9.7 0.23 1.50 1.50 94 1014.5
20260503200834 16 129 3.2 4.8 0.18 1.42 1.42 94 1014.5
20260503195334 16 121 9.7 12.9 0.15 1.32 1.32 94 1014.3
20260503193834 16 105 8.0 12.9 0.15 1.27 1.27 94 1014.5
20260503192333 16 117 8.0 12.9 0.18 1.27 1.27 94 1014.5
20260503190832 16 92 3.2 8.0 0.18 1.22 1.22 93 1014.4
20260503185333 16 88 3.2 9.7 0.15 1.17 1.17 93 1014.5
20260503183833 16 129 4.8 9.7 0.10 1.12 1.12 94 1014.5
20260503182332 16 82 3.2 8.0 0.05 1.09 1.09 94 1014.4
20260503180833 16 105 3.2 8.0 0.03 1.04 1.04 95 1014.1
20260503175334 16 88 8.0 9.7 0.00 1.02 1.02 95 1014.1
20260503173832 16 121 3.2 8.0 0.05 1.02 1.02 94 1014.3
20260503172333 16 82 3.2 8.0 0.10 1.02 1.02 94 1014.4
20260503170834 16 107 3.2 12.9 0.15 1.02 1.02 94 1014.7
20260503150811 17 90 1.6 1.6 0.43 0.64 0.64 92 1016.3